Location: Vesunti
(61.5000°N, 22.8333°E)
Time: 15:31:06
(UTC+00:00)

Cosmos 1656 - Pass Details

Date: 17 February 2020
Orbit: 797 x 851 km, 71.1° (Epoch: 07 April)

Event Time Altitude Azimuth Distance (km) Brightness Sun altitude
Exits shadow 05:05:47 - 317° (NW) 3,060 6.1 -8.0°
Reaches altitude 10° 05:07:21 10° 318° (NW) 2,460 5.6 -7.8°
Maximum altitude 05:13:02 83° 46° (NE) 858 3.8 -7.1°
Drops below altitude 10° 05:18:45 10° 136° (SE) 2,475 7.2 -6.4°
Sets 05:21:12 0° 137° (SE) 3,411 7.9 -6.2°
